This demonstration page uses our WeatherBlox Daily Observations layout. Learn more.

40.92945, -100.16068

Hourly Observations for February 25, 2019

Temp ( °F °C ) Dew Point ( °F °C ) Humidity (%) Winds ( mph kmh ) Pressure ( in mb ) Visibility ( mi km ) Precip ( " mm )
12:15 am 00:15 Clear 5 -15 -2 -19 72 72 ESE 5 7 30.55 1034 10 16.0934 0 0
12:35 am 00:35 Clear 5 -14.9 -2 -19 71 71 ESE 7 11 30.54 1034 10 16.0934 0 0
12:55 am 00:55 Clear 5 -15 -2 -19.1 71 71 E 8 13 30.53 1034 10 16.0934 0 0
1:15 am 01:15 Clear 4 -15.7 -3 -19.6 72 72 E 7 11 30.54 1034 10 16.0934 0 0
1:35 am 01:35 Clear 2 -16.5 -4 -20 75 75 E 8 13 30.54 1034 10 16.0934 0 0
1:55 am 01:55 Clear 1 -17.3 -5 -20.5 76 76 E 7 11 30.54 1034 10 16.0934 0 0
2:15 am 02:15 Clear 3 -16 -3 -19.7 73 73 E 8 13 30.52 1033 10 16.0934 0 0
2:35 am 02:35 Clear 3 -16 -3 -19.6 74 74 E 10 17 30.52 1033 10 16.0934 0 0
2:55 am 02:55 Clear 2 -16.6 -4 -20.2 74 74 E 8 13 30.52 1033 10 16.0934 0 0
3:15 am 03:15 Clear 1 -17.1 -5 -20.3 76 76 E 9 15 30.51 1033 10 16.0934 0 0
3:35 am 03:35 Clear 1 -17 -4 -20 78 78 E 9 15 30.51 1033 10 16.0934 0 0
3:55 am 03:55 Clear 1 -17.1 -4 -20.1 78 78 E 9 15 30.51 1033 10 16.0934 0 0
4:15 am 04:15 Clear 1 -17.3 -4 -20.1 79 79 E 7 11 30.51 1033 10 16.0934 0 0
4:35 am 04:35 Mostly Cloudy 1 -17.5 -4 -20.2 80 80 E 7 11 30.53 1034 10 16.0934 0 0
4:55 am 04:55 Cloudy 1 -17 -4 -20 78 78 E 7 11 30.53 1034 10 16.0934 0 0
5:15 am 05:15 Cloudy 2 -16.9 -4 -19.9 78 78 E 7 11 30.53 1034 10 16.0934 0 0
5:35 am 05:35 Cloudy 2 -16.6 -3 -19.5 78 78 E 9 15 30.54 1034 10 16.0934 0 0
5:55 am 05:55 Cloudy 2 -16.5 -3 -19.2 80 80 E 10 17 30.52 1034 10 16.0934 0 0
6:15 am 06:15 Cloudy 2 -16.6 -3 -19.5 78 78 E 10 17 30.53 1034 10 16.0934 0 0
6:35 am 06:35 Cloudy 2 -16.4 -2 -19 81 81 E 10 17 30.5 1033 10 16.0934 0 0
6:55 am 06:55 Cloudy 3 -16.3 -2 -19 80 80 E 10 17 30.51 1033 10 16.0934 0 0
7:15 am 07:15 Cloudy 2 -16.5 -2 -19.1 80 80 E 8 13 30.52 1034 10 16.0934 0 0
7:35 am 07:35 Cloudy 3 -16.3 -2 -19 80 80 E 15 24 30.5 1033 10 16.0934 0 0
7:55 am 07:55 Cloudy 2 -16.5 -3 -19.2 80 80 E 15 24 30.49 1033 10 16.0934 0 0
8:15 am 08:15 Cloudy 3 -16.3 -2 -19.1 79 79 E 15 24 30.51 1033 10 16.0934 0 0
8:35 am 08:35 Cloudy 3 -16.1 -2 -19 79 79 E 13 20 30.53 1034 10 16.0934 0 0
8:55 am 08:55 Cloudy 3 -16.3 -2 -19.1 79 79 E 12 19 30.53 1034 7 11.26538 0 0
9:15 am 09:15 Cloudy 3 -16.2 -2 -19.1 79 79 E 16 26 30.53 1034 10 16.0934 0 0
9:35 am 09:35 Cloudy 3 -16 -2 -19.1 77 77 E 15 24 30.53 1034 10 16.0934 0 0
9:55 am 09:55 Cloudy 3 -16 -2 -19.1 77 77 E 13 20 30.52 1033 7 11.26538 0 0
10:15 am 10:15 Cloudy 3 -15.9 -3 -19.3 75 75 E 14 22 30.52 1033 10 16.0934 0 0
10:35 am 10:35 Cloudy 4 -15.7 -3 -19.2 75 75 E 12 19 30.52 1033 7 11.26538 0 0
10:55 am 10:55 Cloudy 4 -15.5 -2 -19 75 75 E 13 20 30.52 1034 7 11.26538 0 0
11:15 am 11:15 Cloudy 4 -15.5 -3 -19.3 73 73 E 12 19 30.52 1034 10 16.0934 0 0
11:35 am 11:35 Cloudy 4 -15.3 -2 -19 74 74 E 14 22 30.49 1033 10 16.0934 0 0
11:55 am 11:55 Cloudy 5 -15.1 -2 -19 72 72 E 15 24 30.5 1033 10 16.0934 0 0
12:15 pm 12:15 Cloudy 5 -15 -2 -18.8 73 73 ENE 13 20 30.51 1033 10 16.0934 0 0
12:35 pm 12:35 Cloudy 6 -14.7 -2 -18.7 72 72 ENE 14 22 30.51 1033 10 16.0934 0 0
12:55 pm 12:55 Cloudy 6 -14.6 -2 -18.7 71 71 ENE 12 19 30.49 1033 10 16.0934 0 0
1:15 pm 13:15 Cloudy 7 -14.1 -1 -18.2 71 71 NE 12 19 30.49 1032 10 16.0934 0 0
1:35 pm 13:35 Cloudy 6 -14.4 -1 -18.5 71 71 NE 12 19 30.49 1033 7 11.26538 0 0
1:55 pm 13:55 Cloudy with Light Snow 6 -14.5 -1 -18.5 72 72 NE 14 22 30.48 1032 7 11.26538 0 0
2:15 pm 14:15 Cloudy with Light Snow 6 -14.5 -1 -18.3 73 73 NE 14 22 30.48 1032 10 16.0934 0 0
2:35 pm 14:35 Cloudy with Light Snow 6 -14.5 -1 -18.2 74 74 NE 15 24 30.48 1032 4 6.43736 0 0
2:55 pm 14:55 Cloudy with Light Snow 6 -14.4 -1 -18.3 73 73 NE 13 20 30.49 1033 10 16.0934 0 0
3:15 pm 15:15 Cloudy 7 -14.1 -1 -18.1 72 72 NE 13 20 30.49 1032 10 16.0934 0 0
3:35 pm 15:35 Cloudy 7 -14 -1 -18.1 71 71 NE 12 19 30.49 1032 10 16.0934 0 0
3:55 pm 15:55 Cloudy 7 -14 0 -17.8 73 73 NE 13 20 30.49 1032 10 16.0934 0 0
4:15 pm 16:15 Cloudy 7 -14 -1 -18.1 71 71 NE 13 20 30.49 1032 10 16.0934 0 0
4:35 pm 16:35 Cloudy 7 -14.1 -1 -18.2 71 71 NE 14 22 30.49 1032 10 16.0934 0 0
4:55 pm 16:55 Cloudy 7 -14.1 -1 -18.4 70 70 NE 12 19 30.51 1033 10 16.0934 0 0
5:15 pm 17:15 Cloudy 7 -14.1 -1 -18.4 70 70 NE 14 22 30.51 1033 10 16.0934 0 0
5:35 pm 17:35 Cloudy 7 -14.1 -1 -18.5 70 70 NE 9 15 30.51 1033 10 16.0934 0 0
5:55 pm 17:55 Cloudy 7 -14.1 -1 -18.6 69 69 NE 10 17 30.52 1033 10 16.0934 0 0
6:15 pm 18:15 Cloudy 7 -14.1 -2 -18.8 68 68 NE 13 20 30.52 1033 10 16.0934 0 0
6:35 pm 18:35 Cloudy 6 -14.2 -2 -18.7 69 69 NE 12 19 30.53 1034 10 16.0934 0 0
6:55 pm 18:55 Cloudy 6 -14.5 -2 -18.8 70 70 NE 12 19 30.53 1034 10 16.0934 0 0
7:15 pm 19:15 Cloudy 6 -14.5 -2 -19.1 68 68 NE 13 20 30.54 1034 10 16.0934 0 0
7:35 pm 19:35 Cloudy 6 -14.5 -3 -19.7 65 65 NNE 14 22 30.53 1034 10 16.0934 0 0
7:55 pm 19:55 Cloudy 6 -14.7 -4 -20 64 64 NNE 14 22 30.53 1034 10 16.0934 0 0
8:15 pm 20:15 Cloudy 6 -14.7 -4 -20 64 64 NNE 13 20 30.54 1034 10 16.0934 0 0
8:35 pm 20:35 Cloudy 6 -14.7 -3 -19.5 67 67 NNE 14 22 30.55 1035 10 16.0934 0 0
8:55 pm 20:55 Cloudy 5 -14.8 -3 -19.5 68 68 NE 14 22 30.55 1034 10 16.0934 0 0
9:15 pm 21:15 Cloudy 5 -15 -3 -19.5 69 69 NE 13 20 30.54 1034 10 16.0934 0 0
9:35 pm 21:35 Cloudy 5 -15 -3 -19.3 70 70 NE 12 19 30.55 1034 10 16.0934 0 0
9:55 pm 21:55 Cloudy 5 -15.2 -2 -19.1 72 72 NE 13 20 30.56 1035 10 16.0934 0 0
10:15 pm 22:15 Cloudy 4 -15.3 -2 -19 74 74 NE 10 17 30.56 1035 10 16.0934 0 0
10:35 pm 22:35 Cloudy 4 -15.3 -2 -19 74 74 NE 12 19 30.57 1035 10 16.0934 0 0
10:55 pm 22:55 Cloudy 4 -15.3 -2 -18.8 75 75 NE 12 19 30.57 1035 10 16.0934 0 0
11:15 pm 23:15 Cloudy 4 -15.3 -2 -18.9 74 74 NE 13 20 30.57 1035 10 16.0934 0 0
11:35 pm 23:35 Cloudy 4 -15.4 -2 -19 74 74 ENE 14 22 30.57 1035 10 16.0934 0 0
11:55 pm 23:55 Cloudy 4 -15.5 -2 -19 75 75 NE 13 20 30.57 1035 10 16.0934 0 0

Powered by AerisWeather